Weather in Mindon

Uzbekistan     40°13′45″N   71°33′16″E
temp.,
°C
wind,
m/s
gust,
m/s
humid.,
%
clouds,
%
prec.,
mm/h
press.,
hPa
HPBL,
m
24 october, sun
sun2423:00+7ese22340 0.0 102811
02:00+6ese22350 0.0 102610
05:00+4e11370 0.0 102510
08:00+9ene11270 0.0 102441
11:00+13nne22210 0.0 1021612
14:00+16nne22170 0.0 1018888
17:00+12n11220 0.0 101711
20:00+9sse11250 0.0 101710
25 october, mon
mon2523:00+9ese11260 0.0 101710
02:00+8e11280 0.0 101610
05:00+7e22310 0.0 101610
08:00+11nne01250 0.0 101712
11:00+16n21160 0.0 1016496
14:00+19nnw21130 0.0 1014801
17:00+14n11200 0.0 101411
20:00+11wsw11230 0.0 101611
26 october, tue
tue2623:00+10wsw22230 0.0 101611
02:00+10wsw22230 0.0 101710
05:00+10wsw22241 0.0 101810
08:00+13w1122100 0.0 102010
11:00+17n2115100 0.0 1019550
14:00+19n2114100 0.0 1018842
17:00+14ese112160 0.0 101911
20:00+11wsw11230 0.0 102011
27 october, wed
wed2723:00+11sw11250 0.0 102110
02:00+10sw22265 0.0 102211
05:00+9wsw1129100 0.0 102210
08:00+12ssw0027100 0.0 102311
11:00+17nnw2220100 0.0 1023542
14:00+18nw3318100 0.0 10211039
17:00+14nw2225100 0.0 102211
20:00+12nnw0028100 0.0 102310
28 october, thu
thu2823:00+13se3327100 0.0 102323
02:00+11se223193 0.0 102310
05:00+10sse1133100 0.0 102310
08:00+13nnw113076 0.0 102417
11:00+15n2125100 0.0 1024751
14:00+17ne1123100 0.0 10221126
17:00+15nnw222786 0.0 102212
20:00+11ssw1141100 0.0 102312